Weather History for Capo Bellavista, Italy

Change the Weather History Date:

Tuesday, November 20, 2012

  Actual Average (LIED) Record (LIED)
Temperature  
Mean Temperature 59 °F -  
Max Temperature 63 °F 60 °F 71 °F (2006)
Min Temperature 55 °F 50 °F 39 °F (1999)
Degree Days  
Heating Degree Days 6    
Growing Degree Days 9 (Base 50)    
Moisture  
Dew Point 54 °F    
Average Humidity 84    
Maximum Humidity 94    
Minimum Humidity 72    
Precipitation  
Precipitation 0.00 in 0.09 in - ()
Sea Level Pressure  
Sea Level Pressure 29.91 in    
Wind  
Wind Speed 8 mph ()    
Max Wind Speed 16 mph    
Max Gust Speed -    
Visibility 7.1 miles    
Events Rain    
Averages and records for this station are not official NWS values.
T = Trace of Precipitation, MM = Missing Value Source: Averaged Metar Reports

Daily Weather History Graph

Daily Weather History Graph

Search for Another Location

Airport:

Trip Planner

Search our weather history database for the weather conditions in past years. The results will help you decide how hot, cold, wet, or windy it might be!

Date:

Astronomy

Nov. 20, 2012 Rise Set
Actual Time 7:12 AM CET 5:01 PM CET
Civil Twilight 6:42 AM CET 5:30 PM CET
Nautical Twilight 6:09 AM CET 6:03 PM CET
Astronomical Twilight 5:37 AM CET 6:35 PM CET
Moon 12:38 PM CET (11/20) No Moon Set
Length of Visible Light 10h 47m
Length of Day
9h 49m
Waxing Crescent, 48% of the Moon is Illuminated
Nov 20
Waxing Crescent
Nov 20
First Quarter
Nov 28
Full
Dec 6
Last Quarter
Dec 13
New

Hourly Weather History & Observations

Time (CET) Temp. Dew Point Humidity Pressure Visibility Wind Dir Wind Speed Gust Speed Precip Events Conditions
12:55 AM 55.4 °F 51.8 °F 88% 29.83 in 6.2 mi North 15.0 mph - N/A Rain Light Rain
1:55 AM 55.4 °F 51.8 °F 88% 29.83 in 6.2 mi North 13.8 mph - N/A   Scattered Clouds
5:55 AM 55.4 °F 51.8 °F 88% 29.83 in 6.2 mi NNW 10.4 mph - N/A   Partly Cloudy
6:55 AM 57.2 °F 51.8 °F 82% 29.86 in 6.2 mi NNW 9.2 mph - N/A   Partly Cloudy
7:00 AM 56 °F 51 °F 80% 29.87 in 12 mi NNW 9.2 mph - -   Partly Cloudy
7:55 AM 55.4 °F 50.0 °F 82% 29.86 in 6.2 mi NNW 6.9 mph - N/A   Partly Cloudy
8:55 AM 57.2 °F 50.0 °F 77% 29.89 in 6.2 mi NW 5.8 mph - N/A   Partly Cloudy
9:55 AM 60.8 °F 51.8 °F 72% 29.92 in 6.2 mi Calm Calm - N/A   Partly Cloudy
10:55 AM 62.6 °F 55.4 °F 77% 29.92 in 6.2 mi East 4.6 mph - N/A   Partly Cloudy
11:55 AM 62.6 °F 55.4 °F 77% 29.92 in 6.2 mi ENE 9.2 mph - N/A   Partly Cloudy
12:55 PM 62.6 °F 57.2 °F 82% 29.92 in 6.2 mi ENE 12.7 mph - N/A   Partly Cloudy
1:00 PM 63 °F 56 °F 72% 29.93 in 12 mi ENE 12.7 mph - -   Scattered Clouds
1:55 PM 62.6 °F 57.2 °F 82% 29.92 in 6.2 mi ENE 12.7 mph - N/A   Scattered Clouds
2:55 PM 60.8 °F 59.0 °F 94% 29.92 in 6.2 mi ENE 15.0 mph - N/A   Scattered Clouds
3:55 PM 60.8 °F 57.2 °F 88% 29.92 in 6.2 mi NE 16.1 mph - N/A   Mostly Cloudy
4:55 PM 60.8 °F 57.2 °F 88% 29.92 in 6.2 mi NE 15.0 mph - N/A   Scattered Clouds
5:55 PM 59.0 °F 57.2 °F 94% 29.92 in 6.2 mi West 8.1 mph - N/A   Partly Cloudy
6:55 PM 59.0 °F 55.4 °F 88% 29.95 in 6.2 mi NW 3.5 mph - N/A   Partly Cloudy
7:00 PM 59 °F 56 °F 87% 29.95 in 12 mi NW 3.5 mph - -   Partly Cloudy
7:55 PM 59.0 °F 55.4 °F 88% 29.95 in 6.2 mi NE 5.8 mph - N/A   Partly Cloudy
8:55 PM 59.0 °F 53.6 °F 82% 29.95 in - WNW 3.5 mph - N/A   Clear
9:55 PM 59.0 °F 53.6 °F 82% 29.95 in - NNE 2.3 mph - N/A   Clear
10:55 PM 57.2 °F 53.6 °F 88% 29.98 in - North 4.6 mph - N/A   Clear
11:55 PM 57.2 °F 53.6 °F 88% 29.98 in - NW 4.6 mph - N/A   Clear